Location: Newark
(48.8833°N, 0.9236°W)
Time: 09:08:40
(UTC+00:00)

Tiros 1 despin weight - Pass Details

Date: 20 November 2019
Orbit: 594 x 642 km, 48.2° (Epoch: 06 December)

Event Time Altitude Azimuth Distance (km) Brightness Sun altitude
Rises 12:48:41 0° 220° (SW) 2,818 ? 20.2°
Reaches altitude 10° 12:51:09 10° 210° (SSW) 1,920 ? 20.0°
Maximum altitude 12:55:00 30° 149° (SSE) 1,073 ? 19.9°
Drops below altitude 10° 12:58:52 10° 88° (E) 1,937 ? 19.7°
Sets 13:01:22 0° 77° (ENE) 2,847 ? 19.6°
